QPF
0.10 0.13 0.14 0.11 0.09 0.09 0.11 0.15 0.13 0.10 0.08 0.07 0.06 0.07 0.08 0.08 0.08 0.06 0.04 0.04 0.03 0.03 0.04 0.06 0.10 0.08 0.05 0.04 0.04 0.04 0.04 0.05 0.04 0.03 0.03 0.03 0.04 0.03 0.03 0.03 0.03 0.03 0.03
0.09 0.12 0.14 0.12 0.12 0.12 0.12 0.13 0.12 0.10 0.08 0.08 0.06 0.07 0.07 0.07 0.08 0.07 0.05 0.05 0.05 0.05 0.04 0.07 0.08 0.06 0.05 0.05 0.05 0.06 0.05 0.05 0.04 0.04 0.03 0.04 0.04 0.05 0.05 0.04 0.03 0.03 0.03
0.09 0.08 0.08 0.08 0.09 0.08 0.08 0.09 0.10 0.08 0.08 0.08 0.09 0.09 0.10 0.08 0.08 0.09 0.08 0.07 0.06 0.05 0.06 0.07 0.06 0.05 0.05 0.05 0.05 0.06 0.06 0.05 0.05 0.05 0.04 0.03 0.04 0.05 0.05 0.05 0.05 0.04 0.04
0.08 0.07 0.04 0.05 0.05 0.05 0.07 0.10 0.09 0.09 0.10 0.09 0.09 0.08 0.07 0.09 0.09 0.08 0.08 0.07 0.06 0.08 0.08 0.06 0.05 0.05 0.05 0.05 0.04 0.05 0.04 0.04 0.06 0.06 0.06 0.05 0.05 0.05 0.05 0.04 0.04 0.04 0.05
0.06 0.04 0.04 0.05 0.05 0.06 0.06 0.05 0.07 0.09 0.10 0.09 0.05 0.05 0.06 0.08 0.07 0.06 0.05 0.04 0.05 0.06 0.06 0.05 0.04 0.04 0.04 0.03 0.02 0.04 0.03 0.04 0.05 0.05 0.07 0.06 0.06 0.05 0.04 0.03 0.03 0.03 0.04
0.05 0.05 0.05 0.05 0.05 0.06 0.06 0.06 0.06 0.06 0.06 0.07 0.03 0.04 0.04 0.05 0.06 0.05 0.04 0.05 0.06 0.05 0.06 0.05 0.05 0.04 0.03 0.04 0.03 0.04 0.04 0.04 0.05 0.05 0.05 0.06 0.06 0.05 0.04 0.03 0.02 0.02 0.03
0.06 0.05 0.05 0.06 0.06 0.05 0.05 0.05 0.06 0.05 0.05 0.04 0.04 0.04 0.04 0.05 0.06 0.07 0.07 0.09 0.09 0.07 0.05 0.05 0.07 0.07 0.05 0.04 0.04 0.03 0.03 0.04 0.07 0.07 0.07 0.07 0.07 0.05 0.04 0.03 0.03 0.03 0.04
0.05 0.04 0.06 0.06 0.05 0.04 0.05 0.07 0.09 0.07 0.05 0.04 0.05 0.08 0.09 0.09 0.10 0.09 0.09 0.09 0.09 0.08 0.07 0.05 0.07 0.09 0.11 0.08 0.06 0.04 0.04 0.05 0.06 0.07 0.07 0.06 0.07 0.05 0.04 0.04 0.05 0.05 0.05
0.03 0.04 0.05 0.03 0.04 0.05 0.07 0.08 0.08 0.07 0.07 0.06 0.06 0.08 0.11 0.12 0.12 0.09 0.07 0.07 0.08 0.09 0.11 0.08 0.05 0.05 0.09 0.09 0.08 0.07 0.07 0.05 0.06 0.07 0.07 0.04 0.04 0.04 0.03 0.04 0.05 0.03 0.04
0.03 0.03 0.04 0.03 0.03 0.04 0.04 0.06 0.08 0.08 0.08 0.07 0.06 0.06 0.07 0.08 0.09 0.10 0.09 0.07 0.07 0.09 0.09 0.09 0.05 0.05 0.06 0.05 0.08 0.10 0.07 0.04 0.04 0.04 0.05 0.04 0.05 0.05 0.04 0.05 0.05 0.05 0.05
0.04 0.03 0.04 0.04 0.05 0.05 0.05 0.06 0.07 0.07 0.07 0.06 0.06 0.05 0.05 0.06 0.07 0.08 0.09 0.09 0.09 0.08 0.05 0.05 0.04 0.04 0.04 0.05 0.08 0.09 0.06 0.04 0.02 0.03 0.03 0.04 0.06 0.07 0.06 0.05 0.06 0.05 0.06
0.05 0.04 0.03 0.04 0.05 0.05 0.06 0.06 0.07 0.08 0.06 0.06 0.06 0.05 0.05 0.05 0.06 0.06 0.07 0.07 0.09 0.07 0.06 0.05 0.04 0.04 0.03 0.04 0.04 0.06 0.05 0.02 0.02 0.02 0.02 0.02 0.03 0.05 0.06 0.07 0.07 0.07 0.08
0.04 0.04 0.02 0.03 0.04 0.05 0.04 0.05 0.06 0.06 0.06 0.06 0.06 0.05 0.04 0.03 0.03 0.04 0.04 0.05 0.07 0.06 0.07 0.07 0.04 0.04 0.03 0.04 0.04 0.06 0.04 0.03 0.02 0.01 0.01 0.02 0.03 0.05 0.04 0.06 0.07 0.07 0.08
0.02 0.03 0.02 0.02 0.03 0.03 0.03 0.05 0.05 0.05 0.06 0.05 0.04 0.05 0.04 0.03 0.03 0.04 0.06 0.06 0.06 0.06 0.06 0.06 0.04 0.03 0.04 0.04 0.04 0.04 0.04 0.03 0.01 0.01 0.01 0.01 0.02 0.03 0.04 0.05 0.06 0.04 0.05
0.03 0.03 0.02 0.03 0.03 0.03 0.04 0.05 0.06 0.04 0.04 0.04 0.04 0.04 0.04 0.04 0.04 0.04 0.05 0.06 0.07 0.07 0.06 0.06 0.04 0.03 0.03 0.04 0.03 0.04 0.04 0.03 0.01 0.01 0.01 0.01 0.01 0.02 0.03 0.04 0.03 0.03 0.04
0.03 0.03 0.03 0.03 0.03 0.05 0.06 0.06 0.05 0.03 0.03 0.04 0.04 0.04 0.04 0.04 0.04 0.04 0.05 0.05 0.06 0.06 0.06 0.04 0.04 0.03 0.02 0.02 0.03 0.03 0.04 0.04 0.03 0.01 0.01 0.01 0.01 0.02 0.02 0.03 0.03 0.02 0.03
0.03 0.03 0.04 0.05 0.05 0.04 0.04 0.05 0.03 0.04 0.03 0.04 0.03 0.03 0.03 0.04 0.04 0.04 0.05 0.05 0.06 0.06 0.05 0.04 0.04 0.03 0.03 0.03 0.03 0.03 0.03 0.03 0.03 0.01 0.01 0.01 0.01 0.01 0.02 0.04 0.05 0.04 0.03
0.03 0.03 0.03 0.03 0.02 0.02 0.03 0.03 0.02 0.03 0.02 0.03 0.03 0.04 0.04 0.04 0.05 0.04 0.04 0.04 0.05 0.06 0.06 0.05 0.05 0.05 0.04 0.03 0.04 0.04 0.04 0.03 0.02 0.02 0.01 0.00 0.00 0.00 0.01 0.03 0.05 0.04 0.03
0.02 0.01 0.01 0.01 0.01 0.02 0.03 0.03 0.02 0.03 0.02 0.02 0.03 0.04 0.04 0.05 0.05 0.05 0.06 0.05 0.04 0.05 0.07 0.07 0.05 0.06 0.05 0.04 0.04 0.04 0.04 0.04 0.03 0.03 0.02 0.01 0.01 0.01 0.01 0.01 0.02 0.01 0.02
0.01 0.01 0.01 0.01 0.01 0.02 0.02 0.02 0.02 0.03 0.03 0.02 0.02 0.03 0.03 0.03 0.04 0.05 0.05 0.07 0.07 0.06 0.07 0.08 0.06 0.07 0.06 0.05 0.06 0.05 0.04 0.04 0.03 0.03 0.03 0.03 0.03 0.02 0.02 0.02 0.02 0.02 0.02
0.02 0.02 0.01 0.01 0.01 0.01 0.01 0.02 0.02 0.02 0.03 0.02 0.02 0.02 0.02 0.03 0.04 0.05 0.05 0.07 0.09 0.08 0.07 0.07 0.07 0.08 0.07 0.07 0.07 0.06 0.06 0.05 0.05 0.04 0.05 0.04 0.04 0.03 0.02 0.01 0.01 0.01 0.02
0.03 0.03 0.02 0.01 0.01 0.01 0.01 0.01 0.01 0.01 0.02 0.02 0.01 0.01 0.01 0.02 0.03 0.03 0.04 0.05 0.06 0.07 0.07 0.07 0.07 0.07 0.08 0.08 0.08 0.08 0.07 0.07 0.06 0.04 0.05 0.04 0.05 0.05 0.03 0.01 0.02 0.01 0.02
0.03 0.03 0.02 0.02 0.02 0.01 0.01 0.01 0.00 0.01 0.02 0.02 0.02 0.01 0.01 0.02 0.03 0.03 0.03 0.03 0.03 0.04 0.06 0.07 0.08 0.08 0.07 0.07 0.08 0.08 0.07 0.06 0.05 0.03 0.04 0.04 0.04 0.05 0.04 0.02 0.02 0.02 0.03
0.02 0.02 0.02 0.02 0.02 0.01 0.01 0.00 0.00 0.01 0.02 0.02 0.02 0.02 0.02 0.02 0.03 0.05 0.05 0.04 0.04 0.04 0.05 0.06 0.06 0.07 0.06 0.05 0.05 0.06 0.07 0.07 0.05 0.04 0.04 0.03 0.03 0.04 0.05 0.06 0.05 0.04 0.04
0.01 0.01 0.02 0.02 0.02 0.02 0.01 0.00 0.00 0.01 0.02 0.02 0.02 0.02 0.02 0.02 0.04 0.04 0.05 0.05 0.05 0.04 0.06 0.07 0.07 0.06 0.06 0.05 0.04 0.04 0.06 0.06 0.06 0.06 0.05 0.04 0.03 0.03 0.03 0.04 0.04 0.04 0.03
0.01 0.01 0.02 0.02 0.01 0.02 0.02 0.01 0.00 0.01 0.01 0.02 0.02 0.02 0.02 0.03 0.03 0.03 0.04 0.05 0.05 0.05 0.06 0.06 0.08 0.07 0.07 0.06 0.05 0.04 0.03 0.04 0.05 0.05 0.04 0.03 0.03 0.03 0.03 0.03 0.03 0.04 0.04
MSLP
1014.12 1014.06 1013.93 1013.76 1013.59 1013.46 1013.36 1013.31 1013.30 1013.29 1013.27 1013.23 1013.16 1013.09 1013.02 1012.99 1013.01 1013.08 1013.20 1013.34 1013.48 1013.59 1013.64 1013.63 1013.55 1013.44 1013.31 1013.19 1013.10 1013.07 1013.10 1013.18 1013.31 1013.47 1013.65 1013.83 1014.01 1014.18 1014.34 1014.49 1014.63 1014.77 1014.90
1013.69 1013.67 1013.60 1013.49 1013.38 1013.30 1013.25 1013.23 1013.24 1013.26 1013.27 1013.26 1013.25 1013.22 1013.21 1013.23 1013.28 1013.37 1013.49 1013.63 1013.75 1013.84 1013.88 1013.86 1013.79 1013.68 1013.55 1013.42 1013.31 1013.24 1013.21 1013.22 1013.27 1013.36 1013.48 1013.61 1013.76 1013.90 1014.05 1014.18 1014.30 1014.41 1014.51
1013.28 1013.32 1013.31 1013.29 1013.26 1013.24 1013.25 1013.27 1013.31 1013.36 1013.40 1013.44 1013.48 1013.51 1013.56 1013.62 1013.70 1013.81 1013.92 1014.03 1014.13 1014.19 1014.22 1014.21 1014.15 1014.06 1013.95 1013.83 1013.72 1013.61 1013.53 1013.48 1013.45 1013.46 1013.50 1013.57 1013.67 1013.78 1013.89 1013.99 1014.08 1014.14 1014.18
1012.92 1013.01 1013.09 1013.16 1013.21 1013.26 1013.32 1013.38 1013.45 1013.52 1013.60 1013.68 1013.78 1013.88 1013.99 1014.10 1014.21 1014.33 1014.43 1014.51 1014.58 1014.62 1014.63 1014.62 1014.58 1014.53 1014.45 1014.36 1014.26 1014.15 1014.04 1013.93 1013.83 1013.77 1013.73 1013.73 1013.77 1013.83 1013.89 1013.96 1013.99 1013.99 1013.96
1012.63 1012.78 1012.93 1013.08 1013.21 1013.32 1013.41 1013.50 1013.58 1013.67 1013.78 1013.91 1014.06 1014.23 1014.41 1014.58 1014.74 1014.87 1014.97 1015.03 1015.07 1015.08 1015.08 1015.07 1015.06 1015.04 1015.01 1014.97 1014.89 1014.79 1014.67 1014.53 1014.38 1014.25 1014.15 1014.08 1014.06 1014.06 1014.07 1014.08 1014.05 1013.98 1013.86
1012.41 1012.61 1012.83 1013.04 1013.22 1013.37 1013.48 1013.57 1013.65 1013.75 1013.88 1014.05 1014.26 1014.50 1014.75 1015.00 1015.21 1015.38 1015.49 1015.54 1015.56 1015.55 1015.54 1015.53 1015.54 1015.57 1015.59 1015.59 1015.56 1015.49 1015.38 1015.22 1015.05 1014.87 1014.71 1014.59 1014.51 1014.45 1014.41 1014.36 1014.26 1014.11 1013.89
1012.25 1012.49 1012.76 1013.00 1013.22 1013.38 1013.49 1013.56 1013.63 1013.71 1013.85 1014.05 1014.31 1014.63 1014.96 1015.29 1015.57 1015.79 1015.93 1015.99 1016.01 1015.99 1015.98 1015.98 1016.01 1016.08 1016.15 1016.20 1016.23 1016.20 1016.11 1015.96 1015.77 1015.57 1015.38 1015.21 1015.08 1014.97 1014.88 1014.76 1014.60 1014.37 1014.07
1012.16 1012.43 1012.71 1012.98 1013.20 1013.36 1013.45 1013.49 1013.52 1013.59 1013.72 1013.93 1014.24 1014.62 1015.03 1015.44 1015.81 1016.09 1016.27 1016.37 1016.40 1016.39 1016.38 1016.40 1016.46 1016.55 1016.67 1016.77 1016.85 1016.86 1016.81 1016.68 1016.51 1016.30 1016.09 1015.90 1015.73 1015.58 1015.44 1015.27 1015.04 1014.75 1014.37
1012.12 1012.40 1012.70 1012.98 1013.20 1013.34 1013.40 1013.40 1013.40 1013.43 1013.54 1013.76 1014.09 1014.52 1015.00 1015.48 1015.91 1016.26 1016.50 1016.64 1016.71 1016.72 1016.73 1016.77 1016.85 1016.97 1017.13 1017.28 1017.40 1017.45 1017.44 1017.35 1017.20 1017.01 1016.80 1016.59 1016.41 1016.23 1016.05 1015.84 1015.57 1015.23 1014.80
1012.14 1012.43 1012.74 1013.03 1013.24 1013.37 1013.40 1013.37 1013.33 1013.33 1013.41 1013.62 1013.96 1014.40 1014.91 1015.44 1015.93 1016.34 1016.63 1016.82 1016.93 1016.98 1017.02 1017.08 1017.18 1017.33 1017.51 1017.70 1017.85 1017.95 1017.97 1017.92 1017.80 1017.63 1017.44 1017.24 1017.05 1016.87 1016.67 1016.43 1016.14 1015.77 1015.32
1012.20 1012.51 1012.84 1013.14 1013.37 1013.49 1013.52 1013.47 1013.41 1013.37 1013.43 1013.60 1013.92 1014.35 1014.86 1015.40 1015.91 1016.35 1016.69 1016.92 1017.06 1017.16 1017.23 1017.32 1017.45 1017.62 1017.81 1018.01 1018.19 1018.32 1018.37 1018.35 1018.27 1018.13 1017.97 1017.80 1017.63 1017.45 1017.25 1017.02 1016.73 1016.36 1015.91
1012.30 1012.64 1013.00 1013.32 1013.57 1013.72 1013.77 1013.73 1013.66 1013.61 1013.63 1013.77 1014.03 1014.42 1014.89 1015.40 1015.90 1016.34 1016.69 1016.95 1017.13 1017.26 1017.37 1017.49 1017.64 1017.82 1018.03 1018.23 1018.42 1018.56 1018.63 1018.64 1018.58 1018.49 1018.37 1018.23 1018.09 1017.94 1017.77 1017.56 1017.29 1016.95 1016.54
1012.41 1012.78 1013.18 1013.55 1013.85 1014.05 1014.14 1014.13 1014.08 1014.03 1014.03 1014.12 1014.33 1014.64 1015.04 1015.49 1015.94 1016.35 1016.69 1016.96 1017.16 1017.32 1017.46 1017.61 1017.77 1017.96 1018.17 1018.37 1018.54 1018.67 1018.75 1018.78 1018.75 1018.69 1018.61 1018.52 1018.42 1018.32 1018.19 1018.03 1017.80 1017.51 1017.15
1012.50 1012.92 1013.36 1013.79 1014.15 1014.41 1014.57 1014.63 1014.62 1014.58 1014.58 1014.63 1014.77 1015.01 1015.32 1015.68 1016.05 1016.40 1016.71 1016.97 1017.19 1017.37 1017.54 1017.70 1017.88 1018.07 1018.26 1018.44 1018.59 1018.70 1018.77 1018.79 1018.78 1018.74 1018.70 1018.66 1018.62 1018.57 1018.50 1018.39 1018.23 1018.00 1017.71
1012.55 1013.00 1013.49 1013.97 1014.40 1014.74 1014.98 1015.12 1015.18 1015.19 1015.19 1015.23 1015.32 1015.47 1015.69 1015.96 1016.24 1016.53 1016.80 1017.04 1017.26 1017.45 1017.64 1017.82 1018.01 1018.19 1018.35 1018.50 1018.61 1018.69 1018.72 1018.73 1018.71 1018.69 1018.68 1018.67 1018.68 1018.69 1018.69 1018.65 1018.55 1018.40 1018.18
1012.53 1013.02 1013.54 1014.06 1014.56 1014.98 1015.31 1015.54 1015.68 1015.75 1015.79 1015.83 1015.89 1015.99 1016.13 1016.32 1016.53 1016.75 1016.98 1017.20 1017.41 1017.62 1017.82 1018.01 1018.20 1018.36 1018.50 1018.60 1018.66 1018.68 1018.67 1018.63 1018.60 1018.57 1018.57 1018.60 1018.65 1018.71 1018.76 1018.79 1018.76 1018.68 1018.53
1012.45 1012.95 1013.49 1014.05 1014.58 1015.07 1015.49 1015.81 1016.04 1016.19 1016.29 1016.36 1016.43 1016.51 1016.61 1016.74 1016.89 1017.07 1017.26 1017.47 1017.68 1017.89 1018.10 1018.30 1018.48 1018.62 1018.73 1018.78 1018.78 1018.73 1018.66 1018.57 1018.49 1018.45 1018.43 1018.47 1018.54 1018.64 1018.74 1018.82 1018.86 1018.84 1018.75
1012.32 1012.82 1013.36 1013.93 1014.50 1015.04 1015.52 1015.92 1016.24 1016.49 1016.66 1016.79 1016.89 1016.99 1017.08 1017.19 1017.32 1017.47 1017.65 1017.85 1018.06 1018.28 1018.49 1018.70 1018.86 1018.98 1019.05 1019.05 1018.99 1018.88 1018.73 1018.59 1018.45 1018.36 1018.32 1018.34 1018.42 1018.53 1018.65 1018.77 1018.85 1018.88 1018.84
1012.17 1012.67 1013.20 1013.77 1014.35 1014.91 1015.44 1015.91 1016.31 1016.65 1016.91 1017.12 1017.28 1017.41 1017.54 1017.66 1017.79 1017.94 1018.11 1018.31 1018.52 1018.74 1018.96 1019.16 1019.31 1019.41 1019.44 1019.39 1019.28 1019.11 1018.90 1018.69 1018.50 1018.36 1018.27 1018.26 1018.31 1018.41 1018.54 1018.67 1018.77 1018.82 1018.82
1012.05 1012.54 1013.06 1013.61 1014.18 1014.75 1015.31 1015.83 1016.30 1016.71 1017.06 1017.35 1017.59 1017.79 1017.96 1018.12 1018.27 1018.43 1018.61 1018.80 1019.01 1019.23 1019.44 1019.62 1019.77 1019.85 1019.85 1019.77 1019.62 1019.40 1019.15 1018.88 1018.64 1018.44 1018.31 1018.25 1018.26 1018.33 1018.43 1018.54 1018.64 1018.70 1018.70
1011.96 1012.46 1012.97 1013.51 1014.06 1014.63 1015.19 1015.74 1016.25 1016.73 1017.16 1017.53 1017.85 1018.12 1018.35 1018.55 1018.72 1018.89 1019.07 1019.26 1019.45 1019.66 1019.85 1020.03 1020.15 1020.22 1020.21 1020.12 1019.94 1019.71 1019.42 1019.13 1018.84 1018.60 1018.42 1018.32 1018.28 1018.30 1018.36 1018.43 1018.50 1018.54 1018.54
1011.91 1012.43 1012.95 1013.47 1014.01 1014.56 1015.12 1015.68 1016.23 1016.75 1017.24 1017.68 1018.07 1018.40 1018.68 1018.92 1019.11 1019.29 1019.45 1019.62 1019.79 1019.97 1020.13 1020.29 1020.40 1020.46 1020.45 1020.36 1020.20 1019.97 1019.69 1019.38 1019.09 1018.82 1018.61 1018.46 1018.37 1018.33 1018.34 1018.37 1018.39 1018.39 1018.36
1011.87 1012.43 1012.96 1013.48 1014.00 1014.54 1015.09 1015.65 1016.21 1016.77 1017.30 1017.80 1018.24 1018.62 1018.94 1019.20 1019.40 1019.57 1019.71 1019.84 1019.97 1020.10 1020.23 1020.36 1020.46 1020.52 1020.52 1020.46 1020.33 1020.13 1019.89 1019.61 1019.33 1019.06 1018.84 1018.65 1018.53 1018.44 1018.39 1018.36 1018.33 1018.27 1018.20
1011.79 1012.38 1012.93 1013.46 1013.98 1014.51 1015.06 1015.62 1016.20 1016.77 1017.33 1017.86 1018.34 1018.75 1019.09 1019.36 1019.56 1019.70 1019.80 1019.88 1019.96 1020.04 1020.13 1020.23 1020.32 1020.39 1020.42 1020.39 1020.32 1020.18 1020.00 1019.77 1019.53 1019.30 1019.08 1018.89 1018.73 1018.61 1018.51 1018.42 1018.33 1018.22 1018.09
1011.59 1012.22 1012.80 1013.34 1013.87 1014.41 1014.95 1015.52 1016.11 1016.70 1017.29 1017.84 1018.34 1018.78 1019.13 1019.39 1019.57 1019.68 1019.74 1019.77 1019.79 1019.82 1019.87 1019.94 1020.02 1020.09 1020.16 1020.19 1020.18 1020.12 1020.01 1019.86 1019.68 1019.49 1019.30 1019.13 1018.97 1018.82 1018.69 1018.55 1018.41 1018.25 1018.06
1011.24 1011.90 1012.50 1013.06 1013.61 1014.16 1014.72 1015.31 1015.91 1016.53 1017.13 1017.71 1018.23 1018.67 1019.02 1019.28 1019.44 1019.51 1019.53 1019.52 1019.49 1019.48 1019.49 1019.54 1019.62 1019.71 1019.81 1019.89 1019.95 1019.96 1019.94 1019.87 1019.76 1019.63 1019.49 1019.35 1019.20 1019.05 1018.90 1018.74 1018.56 1018.35 1018.12
Thickness
5787 5786 5784 5783 5783 5782 5781 5779 5778 5777 5777 5777 5777 5777 5775 5774 5772 5770 5766 5765 5763 5762 5760 5758 5756 5754 5752 5750 5749 5747 5746 5745 5743 5742 5740 5739 5739 5738 5736 5735 5735 5733 5732
5788 5786 5783 5783 5782 5781 5780 5778 5778 5777 5776 5776 5776 5776 5775 5774 5772 5770 5768 5766 5764 5762 5760 5758 5757 5755 5753 5751 5750 5748 5746 5745 5743 5741 5740 5739 5738 5737 5736 5734 5733 5732 5731
5788 5786 5784 5782 5781 5780 5779 5778 5778 5777 5776 5775 5775 5776 5776 5775 5773 5771 5770 5768 5765 5763 5761 5759 5757 5755 5753 5751 5750 5748 5746 5744 5743 5741 5739 5738 5737 5736 5735 5733 5732 5731 5730
5789 5787 5785 5783 5781 5780 5779 5777 5776 5775 5774 5774 5774 5775 5776 5775 5774 5772 5771 5770 5767 5765 5762 5760 5757 5755 5754 5752 5750 5748 5746 5744 5742 5740 5739 5737 5736 5734 5734 5733 5731 5730 5729
5789 5788 5786 5784 5783 5781 5779 5778 5776 5775 5773 5773 5773 5774 5775 5775 5774 5774 5772 5771 5769 5767 5764 5760 5758 5756 5754 5753 5750 5748 5745 5743 5741 5739 5738 5736 5735 5734 5733 5732 5730 5729 5728
5789 5787 5786 5784 5783 5780 5778 5777 5775 5775 5773 5773 5773 5774 5774 5775 5775 5774 5772 5771 5769 5767 5764 5762 5758 5756 5754 5752 5750 5747 5745 5743 5741 5739 5737 5735 5734 5733 5732 5731 5729 5728 5727
5789 5787 5785 5784 5782 5779 5777 5776 5775 5773 5772 5773 5769 5767 5771 5774 5774 5772 5771 5769 5767 5766 5764 5762 5759 5757 5754 5752 5750 5748 5745 5743 5741 5738 5736 5734 5733 5732 5731 5730 5729 5728 5726
5789 5788 5785 5783 5782 5780 5777 5776 5774 5771 5771 5772 5766 5760 5756 5760 5765 5771 5769 5767 5766 5764 5763 5762 5760 5757 5753 5751 5749 5747 5744 5742 5740 5738 5736 5734 5732 5731 5730 5730 5729 5728 5726
5789 5788 5786 5784 5782 5780 5777 5776 5774 5770 5767 5769 5769 5760 5751 5747 5753 5762 5765 5765 5764 5762 5761 5760 5759 5756 5752 5750 5748 5744 5742 5741 5739 5737 5735 5733 5731 5730 5729 5729 5729 5727 5726
5789 5788 5786 5784 5781 5780 5777 5775 5774 5771 5767 5763 5765 5765 5762 5758 5750 5749 5756 5760 5761 5759 5759 5759 5758 5755 5752 5750 5747 5742 5740 5739 5737 5736 5733 5731 5730 5729 5728 5728 5727 5726 5725
5788 5787 5785 5782 5780 5777 5776 5774 5771 5769 5767 5763 5761 5760 5759 5758 5757 5748 5744 5749 5753 5755 5756 5756 5755 5754 5752 5749 5746 5742 5740 5737 5736 5734 5732 5730 5729 5727 5727 5726 5726 5725 5724
5786 5785 5783 5780 5778 5776 5774 5772 5770 5768 5765 5762 5760 5759 5756 5752 5750 5749 5744 5744 5744 5749 5753 5754 5753 5752 5750 5747 5744 5741 5738 5735 5734 5732 5730 5728 5727 5726 5725 5724 5723 5723 5722
5781 5780 5780 5777 5775 5773 5772 5770 5767 5765 5763 5760 5758 5757 5756 5755 5754 5750 5745 5742 5743 5745 5748 5750 5751 5750 5748 5745 5742 5739 5736 5733 5731 5729 5727 5726 5724 5723 5722 5721 5720 5719 5719
5779 5778 5777 5774 5772 5771 5770 5768 5765 5763 5761 5759 5758 5756 5754 5754 5754 5750 5745 5740 5736 5737 5739 5741 5746 5747 5745 5743 5740 5737 5734 5731 5728 5726 5724 5723 5721 5720 5719 5718 5717 5716 5716
5778 5776 5774 5772 5770 5769 5767 5765 5761 5760 5758 5756 5754 5753 5751 5751 5751 5750 5747 5742 5734 5727 5728 5734 5737 5741 5741 5739 5737 5734 5731 5729 5726 5724 5722 5720 5719 5717 5716 5715 5714 5713 5712
5775 5772 5771 5769 5767 5765 5764 5761 5758 5757 5755 5752 5751 5749 5747 5747 5747 5746 5745 5742 5738 5731 5725 5731 5732 5736 5736 5735 5732 5730 5728 5725 5723 5721 5719 5717 5716 5714 5713 5712 5711 5710 5709
5771 5768 5767 5765 5763 5761 5760 5757 5755 5753 5750 5748 5747 5745 5743 5742 5741 5740 5739 5737 5734 5731 5724 5727 5730 5731 5730 5728 5726 5725 5724 5722 5719 5717 5716 5714 5712 5711 5709 5708 5707 5706 5706
5768 5766 5764 5761 5759 5757 5755 5753 5750 5748 5745 5743 5741 5739 5738 5738 5735 5734 5733 5731 5730 5728 5723 5719 5722 5723 5724 5723 5721 5720 5719 5718 5715 5713 5711 5709 5707 5706 5705 5704 5703 5702 5702
5764 5763 5760 5757 5754 5752 5750 5748 5746 5743 5741 5739 5737 5734 5733 5731 5729 5728 5727 5725 5724 5724 5721 5717 5716 5718 5717 5717 5715 5714 5714 5712 5711 5708 5706 5704 5703 5701 5700 5699 5698 5697 5697
5760 5758 5756 5753 5751 5749 5746 5744 5741 5739 5736 5734 5732 5730 5728 5726 5724 5722 5721 5719 5718 5716 5715 5712 5711 5711 5710 5710 5708 5705 5704 5704 5704 5704 5701 5700 5698 5696 5695 5693 5692 5691 5691
5757 5754 5751 5749 5747 5745 5743 5739 5736 5734 5730 5728 5726 5725 5722 5720 5719 5717 5715 5712 5711 5708 5706 5704 5704 5703 5702 5700 5698 5698 5696 5697 5697 5697 5694 5694 5692 5690 5688 5687 5686 5685 5685
5752 5749 5746 5744 5742 5740 5736 5733 5731 5728 5725 5722 5720 5719 5717 5715 5713 5711 5709 5707 5705 5702 5699 5697 5696 5694 5693 5693 5692 5691 5689 5687 5686 5691 5688 5686 5686 5684 5683 5681 5680 5679 5678
5746 5743 5741 5739 5735 5732 5730 5728 5725 5723 5719 5717 5714 5712 5712 5711 5708 5705 5703 5701 5699 5697 5695 5692 5689 5688 5686 5687 5685 5684 5683 5681 5679 5682 5681 5679 5680 5678 5677 5676 5675 5673 5672
5740 5737 5735 5733 5730 5727 5724 5722 5719 5717 5714 5712 5709 5707 5705 5703 5701 5698 5696 5694 5692 5691 5689 5687 5685 5684 5683 5682 5680 5679 5677 5676 5676 5676 5675 5670 5671 5670 5671 5669 5668 5667 5665
5734 5732 5730 5727 5724 5721 5718 5716 5712 5711 5708 5706 5705 5703 5700 5697 5694 5692 5690 5687 5685 5684 5683 5682 5681 5679 5678 5676 5674 5672 5669 5667 5665 5666 5667 5664 5663 5662 5662 5661 5660 5659 5658
5729 5727 5724 5722 5719 5716 5712 5709 5706 5705 5702 5700 5699 5697 5695 5692 5688 5685 5682 5680 5677 5676 5676 5675 5673 5672 5672 5670 5668 5665 5663 5659 5658 5657 5659 5657 5655 5654 5651 5654 5653 5651 5650